Weather Roundup
Issued by NWS

Home | Current Version | Previous Version | Text Only | Print | Product List | Glossary On
Versions: 1 2 3 4 5 6 7 8 9 10 11 12 13 14 15 16 17 18 19 20 21 22 23 24 25 26 27 28 29 30 31 32 33 34 35 36 37 38 39 40 41 42 43 44 45 46 47 48 49 50
000
NZUS93 KARX 291210
HRRWXR

CURRENT HOURLY OBSERVATIONS ACROSS
MUCH OF THE UPPER MISSISSIPPI VALLEY
NATIONAL WEATHER SERVICE LA CROSSE WI
700 AM CDT SUN MAR 29 2015


...SOUTHEAST MINNESOTA...


CITY           SKY/WX    TMP DP  RH WIND       PRES   REMARKS
ROCHESTER      CLOUDY    33  28  81 S26G37    29.72R WCI  20
ROCHESTER/MAYO CLOUDY    34  29  83 S14G29    29.72S WCI  24
WINONA         DRIZZLE   36  30  80 S14G23    29.77F WCI  27
AUSTIN         CLOUDY    34  28  80 S17       29.74R WCI  23
ALBERT LEA     MOCLDY    34  34 100 S14G23    29.72R WCI  24
DODGE CENTER   CLOUDY    34  30  86 S16       29.71R WCI  23
PRESTON        CLOUDY    31  28  85 S15G25    29.76F WCI  21
OWATONNA       MOCLDY    36  30  80 S21G32    29.70F WCI  24
FARIBAULT      PTCLDY    36  30  80 S16G22    29.69F WCI  26
$$

...ELSEWHERE IN MINNESOTA...


CITY           SKY/WX    TMP DP  RH WIND       PRES   REMARKS
MINNEAPOLIS    PTCLDY    35  30  82 S14       29.66F WCI  26
INTNL FALLS    LGT SNOW  33  31  92 SW9       29.42S FOG     WCI  25
DULUTH         CLOUDY    35  26  69 SW20G32   29.52F WCI  24
RED WING       CLOUDY    36  28  75 S3        29.72F
REDWOOD FALLS  PTCLDY    40  34  79 SW16      29.60F WCI  31
MANKATO        PTCLDY    36  28  75 S20G25    29.67F WCI  25
WORTHINGTON    CLEAR     39  32  75 SW12      29.70R WCI  32
FAIRMONT       PTCLDY    36  30  80 S18G25    29.68S WCI  25
$$

...SOUTHWEST WISCONSIN...


CITY           SKY/WX    TMP DP  RH WIND       PRES   REMARKS
LA CROSSE      FRZ RAIN  34  27  75 S22G33    29.81F WCI  22
PRAIRIE DU CHI MIX PCPN  34  22  61 S6        29.92F WCI  29
BOSCOBEL       MOCLDY    34  20  56 S12G20    29.95F WCI  25
LONE ROCK      FAIR      33  19  56 S15       29.98F WCI  23
PLATTEVILLE    PTCLDY    32  22  66 S17       29.98S WCI  21
FORT MC COY    CLOUDY    34  19  55 S12G20    29.85F WCI  25
CAMP DOUGLAS   MOCLDY    33  19  55 S13       29.88F WCI  24
VIROQUA        CLOUDY    31  24  73 S18G25    29.84F WCI  20
WIS DELLS      MOCLDY    32  18  56 S20G28    29.89F WCI  20
$$

...ELSEWHERE IN WISCONSIN...


CITY           SKY/WX    TMP DP  RH WIND       PRES   REMARKS
MILWAUKEE      MOCLDY    30  14  51 SW9       30.09R WCI  22
MADISON        MOCLDY    31  18  58 S14G22    29.99F WCI  21
GREEN BAY      PTCLDY    32  19  58 S14G22    29.99F WCI  22
EAU CLAIRE     FRZ RAIN  32  26  78 S16       29.72F WCI  21
BLACK RVR FLS  FAIR      34  17  51 S7        29.83F WCI  28
MEDFORD        MOCLDY    30  19  63 S21       29.76F WCI  17
WAUSAU         MOCLDY    30  16  56 S14G23    29.83F WCI  19
WIS RAPIDS     MOCLDY    31  15  52 S13G18    29.90F WCI  21
MARSHFIELD     MOCLDY    31  17  56 S15       29.82F WCI  20
RICE LAKE      MIX PCPN  32  29  87 S13G20    29.70F WCI  23
$$

...NORTHEAST IOWA...


CITY           SKY/WX    TMP DP  RH WIND       PRES   REMARKS
DECORAH        LGT RAIN  32  28  86 S17G26    29.80F WCI  21
MASON CITY     CLOUDY    34  29  82 S18G26    29.78R WCI  23
CHARLES CITY   CLOUDY    34  30  86 S28G33    29.78F WCI  20
OELWEIN        LGT RAIN  32  30  93 S25G31    29.85F WCI  19
$$

...ELSEWHERE IN IOWA...


CITY           SKY/WX    TMP DP  RH WIND       PRES   REMARKS
DES MOINES     CLOUDY    39  34  82 S20       29.86F WCI  29
IOWA CITY      CLOUDY    34  24  67 S16G23    29.98F WCI  24
FORT DODGE     MOCLDY    37  30  75 S18G26    29.79S WCI  27
$$

...NORTHERN ILLINOIS...


CITY           SKY/WX    TMP DP  RH WIND       PRES   REMARKS
CHICAGO-OHARE  MOCLDY    31  15  52 S16       30.13S WCI  20
CHICAGO-MIDWAY MOCLDY    32  16  51 S12       30.14F WCI  23
MOLINE         MOCLDY    32  20  61 S15       30.02F WCI  22
ROCKFORD       MOCLDY    29  19  66 S15       30.11R WCI  18
PEORIA         CLEAR     31  21  66 S13       30.15R WCI  21
$$

NOTE: "FAIR" INDICATES FEW OR NO CLOUDS BELOW 12,000 FEET WITH NO
SIGNIFICANT WEATHER AND/OR OBSTRUCTIONS TO VISIBILITY. WIND
SPEEDS ARE IN MILES-PER-HOUR.



USA.gov is the U.S. government's official web portal to all federal, state and local government web resources and services.